| time (UTC) | temp C | wind direction | speed KPH | gust KPH | rain 1hr cm | rain 24hr cm | rain mn cm | humidity % | barometer mb |
| 20260906140041 | 18 | 40 | 3.2 | 11.3 | 0.00 | 0.00 | 0.00 | 97 | 1020.4 |
| 20260906135520 | 19 | 113 | 3.2 | 11.3 | 0.00 | 0.00 | 0.00 | 97 | 1020.4 |
| 20260906135018 | 18 | 0 | 1.6 | 11.3 | 0.00 | 0.00 | 0.00 | 97 | 1020.3 |
| 20260906134536 | 18 | 91 | 4.8 | 9.7 | 0.00 | 0.00 | 0.00 | 97 | 1020.4 |
| 20260906134016 | 18 | 35 | 4.8 | 8.0 | 0.00 | 0.00 | 0.00 | 97 | 1020.5 |
| 20260906133519 | 18 | 40 | 3.2 | 8.0 | 0.00 | 0.00 | 0.00 | 97 | 1020.6 |
| 20260906133036 | 18 | 49 | 3.2 | 8.0 | 0.00 | 0.00 | 0.00 | 97 | 1020.6 |
| 20260906132516 | 18 | 49 | 4.8 | 8.0 | 0.00 | 0.00 | 0.00 | 97 | 1020.6 |
| 20260906132021 | 18 | 38 | 1.6 | 6.4 | 0.00 | 0.00 | 0.00 | 97 | 1020.5 |
| 20260906131538 | 17 | 0 | 0.0 | 4.8 | 0.00 | 0.00 | 0.00 | 97 | 1020.4 |
| 20260906131021 | 17 | 20 | 0.0 | 4.8 | 0.00 | 0.00 | 0.00 | 97 | 1020.5 |
| 20260906130520 | 17 | 28 | 3.2 | 4.8 | 0.00 | 0.00 | 0.00 | 97 | 1020.4 |
| 20260906130041 | 17 | 347 | 0.0 | 4.8 | 0.00 | 0.00 | 0.00 | 97 | 1020.3 |
| 20260906125516 | 17 | 0 | 0.0 | 4.8 | 0.00 | 0.00 | 0.00 | 97 | 1020.3 |
| 20260906125019 | 17 | 0 | 1.6 | 6.4 | 0.00 | 0.00 | 0.00 | 97 | 1020.3 |
| 20260906124539 | 17 | 331 | 3.2 | 6.4 | 0.00 | 0.00 | 0.00 | 97 | 1020.2 |
| 20260906124017 | 17 | 348 | 1.6 | 6.4 | 0.00 | 0.00 | 0.00 | 97 | 1020.1 |
| 20260906123518 | 16 | 0 | 0.0 | 6.4 | 0.00 | 0.00 | 0.00 | 97 | 1020.1 |
| 20260906123037 | 16 | 347 | 1.6 | 6.4 | 0.00 | 0.00 | 0.00 | 97 | 1020.0 |
| 20260906122518 | 16 | 349 | 3.2 | 6.4 | 0.00 | 0.00 | 0.00 | 97 | 1020.1 |
| 20260906122022 | 16 | 348 | 4.8 | 8.0 | 0.00 | 0.00 | 0.00 | 97 | 1020.1 |
| 20260906121535 | 16 | 332 | 4.8 | 8.0 | 0.00 | 0.00 | 0.00 | 96 | 1020.0 |
| 20260906121021 | 16 | 340 | 4.8 | 8.0 | 0.00 | 0.00 | 0.00 | 96 | 1019.8 |
| 20260906120518 | 16 | 345 | 1.6 | 6.4 | 0.00 | 0.00 | 0.00 | 96 | 1019.7 |
| 20260906120036 | 16 | 0 | 0.0 | 0.0 | 0.00 | 0.00 | 0.00 | 96 | 1019.6 |
| 20260906115520 | 16 | 0 | 0.0 | 0.0 | 0.00 | 0.00 | 0.00 | 96 | 1019.5 |
| 20260906115016 | 16 | 0 | 0.0 | 3.2 | 0.00 | 0.00 | 0.00 | 96 | 1019.5 |
| 20260906114536 | 16 | 0 | 0.0 | 4.8 | 0.00 | 0.00 | 0.00 | 96 | 1019.5 |
| 20260906114018 | 16 | 0 | 1.6 | 6.4 | 0.00 | 0.00 | 0.00 | 96 | 1019.5 |
| 20260906113518 | 16 | 11 | 1.6 | 8.0 | 0.00 | 0.00 | 0.00 | 96 | 1019.3 |
| 20260906113034 | 16 | 33 | 3.2 | 8.0 | 0.00 | 0.00 | 0.00 | 97 | 1019.2 |
| 20260906112518 | 16 | 28 | 4.8 | 6.4 | 0.00 | 0.00 | 0.00 | 96 | 1019.2 |
| 20260906112018 | 16 | 23 | 3.2 | 6.4 | 0.00 | 0.00 | 0.00 | 96 | 1019.1 |
| 20260906111538 | 16 | 21 | 3.2 | 6.4 | 0.00 | 0.00 | 0.00 | 96 | 1019.1 |
| 20260906111020 | 16 | 23 | 3.2 | 6.4 | 0.00 | 0.00 | 0.00 | 96 | 1019.2 |
| 20260906110521 | 16 | 36 | 3.2 | 6.4 | 0.00 | 0.00 | 0.00 | 96 | 1019.2 |
| 20260906110035 | 16 | 25 | 3.2 | 8.0 | 0.00 | 0.00 | 0.00 | 96 | 1019.1 |
| 20260906105520 | 16 | 26 | 4.8 | 8.0 | 0.00 | 0.00 | 0.00 | 96 | 1019.0 |
| 20260906105020 | 16 | 45 | 3.2 | 8.0 | 0.00 | 0.00 | 0.00 | 96 | 1019.1 |
| 20260906104538 | 16 | 46 | 3.2 | 6.4 | 0.00 | 0.00 | 0.00 | 96 | 1019.0 |
| 20260906104019 | 16 | 16 | 3.2 | 6.4 | 0.00 | 0.00 | 0.00 | 96 | 1019.3 |
| 20260906103519 | 16 | 19 | 3.2 | 6.4 | 0.00 | 0.00 | 0.00 | 96 | 1019.1 |
| 20260906103034 | 16 | 360 | 4.8 | 6.4 | 0.00 | 0.00 | 0.00 | 96 | 1019.2 |
| 20260906102516 | 16 | 14 | 3.2 | 8.0 | 0.00 | 0.00 | 0.00 | 96 | 1019.1 |
| 20260906102018 | 16 | 33 | 3.2 | 8.0 | 0.00 | 0.00 | 0.00 | 96 | 1019.0 |
| 20260906101537 | 16 | 30 | 3.2 | 8.0 | 0.00 | 0.00 | 0.00 | 96 | 1019.0 |
| 20260906101020 | 16 | 36 | 4.8 | 8.0 | 0.00 | 0.00 | 0.00 | 96 | 1019.1 |
| 20260906100523 | 16 | 360 | 4.8 | 6.4 | 0.00 | 0.00 | 0.00 | 96 | 1019.0 |
| 20260906100036 | 16 | 25 | 4.8 | 6.4 | 0.00 | 0.00 | 0.00 | 96 | 1019.0 |
| 20260906095520 | 16 | 5 | 3.2 | 6.4 | 0.00 | 0.00 | 0.00 | 96 | 1018.9 |
| 20260906095018 | 16 | 350 | 3.2 | 4.8 | 0.00 | 0.00 | 0.00 | 96 | 1018.8 |
| 20260906094534 | 16 | 348 | 1.6 | 4.8 | 0.00 | 0.00 | 0.00 | 96 | 1018.8 |
| 20260906094015 | 16 | 340 | 1.6 | 4.8 | 0.00 | 0.00 | 0.00 | 96 | 1018.6 |
| 20260906093519 | 16 | 263 | 0.0 | 4.8 | 0.00 | 0.00 | 0.00 | 96 | 1018.7 |
| 20260906093046 | 16 | 18 | 0.0 | 6.4 | 0.00 | 0.00 | 0.00 | 96 | 1018.7 |
| 20260906092524 | 16 | 360 | 3.2 | 6.4 | 0.00 | 0.00 | 0.00 | 96 | 1018.7 |
| 20260906092022 | 16 | 19 | 3.2 | 6.4 | 0.00 | 0.00 | 0.00 | 96 | 1018.7 |
| 20260906091535 | 16 | 360 | 4.8 | 6.4 | 0.00 | 0.00 | 0.00 | 96 | 1018.6 |
| 20260906091018 | 16 | 5 | 3.2 | 6.4 | 0.00 | 0.00 | 0.00 | 96 | 1018.6 |
| 20260906090524 | 16 | 15 | 3.2 | 6.4 | 0.00 | 0.00 | 0.00 | 96 | 1018.5 |
| 20260906090035 | 16 | 24 | 3.2 | 6.4 | 0.00 | 0.00 | 0.00 | 96 | 1018.5 |
| 20260906085517 | 16 | 11 | 1.6 | 4.8 | 0.00 | 0.00 | 0.00 | 96 | 1018.6 |
| 20260906085016 | 16 | 5 | 3.2 | 4.8 | 0.00 | 0.00 | 0.00 | 96 | 1018.5 |
| 20260906084640 | 16 | 30 | 3.2 | 4.8 | 0.00 | 0.00 | 0.00 | 96 | 1018.6 |
| 20260906084019 | 16 | 0 | 0.0 | 0.0 | 0.00 | 0.00 | 0.00 | 96 | 1018.5 |
| 20260906083518 | 16 | 0 | 0.0 | 0.0 | 0.00 | 0.00 | 0.00 | 96 | 1018.5 |
| 20260906083035 | 16 | 0 | 0.0 | 0.0 | 0.00 | 0.00 | 0.00 | 95 | 1018.5 |
| 20260906082520 | 17 | 0 | 0.0 | 0.0 | 0.00 | 0.00 | 0.00 | 96 | 1018.5 |
| 20260906082022 | 17 | 0 | 0.0 | 0.0 | 0.00 | 0.00 | 0.00 | 96 | 1018.6 |
| 20260906081536 | 17 | 0 | 0.0 | 0.0 | 0.00 | 0.00 | 0.00 | 96 | 1018.6 |
| 20260906081021 | 17 | 0 | 0.0 | 0.0 | 0.00 | 0.00 | 0.00 | 95 | 1018.6 |
| 20260906080519 | 17 | 0 | 0.0 | 0.0 | 0.00 | 0.00 | 0.00 | 95 | 1018.6 |
| 20260906080049 | 17 | 0 | 0.0 | 0.0 | 0.00 | 0.00 | 0.00 | 96 | 1018.7 |
| 20260906075519 | 17 | 0 | 0.0 | 0.0 | 0.00 | 0.00 | 0.00 | 96 | 1018.8 |
| 20260906075016 | 17 | 0 | 0.0 | 0.0 | 0.00 | 0.00 | 0.00 | 96 | 1018.7 |
| 20260906074537 | 17 | 0 | 0.0 | 0.0 | 0.00 | 0.00 | 0.00 | 96 | 1018.7 |
| 20260906074016 | 17 | 0 | 0.0 | 0.0 | 0.00 | 0.00 | 0.00 | 96 | 1018.7 |
| 20260906073520 | 17 | 0 | 0.0 | 0.0 | 0.00 | 0.00 | 0.00 | 95 | 1018.6 |
| 20260906073038 | 17 | 0 | 0.0 | 0.0 | 0.00 | 0.00 | 0.00 | 96 | 1018.6 |
| 20260906072519 | 17 | 0 | 0.0 | 0.0 | 0.00 | 0.00 | 0.00 | 95 | 1018.7 |
| 20260906072024 | 17 | 0 | 0.0 | 0.0 | 0.00 | 0.00 | 0.00 | 96 | 1018.7 |
| 20260906071534 | 17 | 0 | 0.0 | 0.0 | 0.00 | 0.00 | 0.00 | 95 | 1018.7 |
| 20260906071021 | 17 | 0 | 0.0 | 0.0 | 0.00 | 0.00 | 0.00 | 95 | 1018.9 |
| 20260906070520 | 17 | 0 | 0.0 | 0.0 | 0.00 | 0.00 | 0.00 | 95 | 1018.9 |
| 20260906070039 | 17 | 0 | 0.0 | 0.0 | 0.00 | 0.00 | 0.00 | 95 | 1018.9 |
| 20260906065520 | 17 | 0 | 0.0 | 0.0 | 0.00 | 0.00 | 0.00 | 95 | 1018.8 |
| 20260906065020 | 17 | 0 | 0.0 | 0.0 | 0.00 | 0.00 | 0.00 | 95 | 1018.9 |
| 20260906064536 | 17 | 0 | 0.0 | 0.0 | 0.00 | 0.00 | 0.00 | 95 | 1019.0 |
| 20260906064018 | 18 | 0 | 0.0 | 0.0 | 0.00 | 0.00 | 0.00 | 95 | 1018.9 |
| 20260906063519 | 18 | 0 | 0.0 | 0.0 | 0.00 | 0.00 | 0.00 | 95 | 1018.9 |
| 20260906063040 | 18 | 0 | 0.0 | 0.0 | 0.00 | 0.00 | 0.00 | 95 | 1018.9 |
| 20260906062521 | 18 | 0 | 0.0 | 0.0 | 0.00 | 0.00 | 0.00 | 95 | 1018.9 |
| 20260906062021 | 18 | 0 | 0.0 | 0.0 | 0.00 | 0.00 | 0.00 | 95 | 1019.1 |
| 20260906061539 | 18 | 0 | 0.0 | 0.0 | 0.00 | 0.00 | 0.00 | 95 | 1019.1 |
| 20260906061020 | 18 | 0 | 0.0 | 0.0 | 0.00 | 0.00 | 0.00 | 95 | 1019.1 |
| 20260906060524 | 18 | 0 | 0.0 | 3.2 | 0.00 | 0.00 | 0.00 | 95 | 1019.1 |
| 20260906060042 | 18 | 0 | 0.0 | 4.8 | 0.00 | 0.00 | 0.00 | 95 | 1019.1 |
| 20260906055519 | 18 | 348 | 1.6 | 4.8 | 0.00 | 0.00 | 0.00 | 95 | 1019.0 |
| 20260906055016 | 18 | 28 | 3.2 | 6.4 | 0.00 | 0.00 | 0.00 | 95 | 1018.8 |
| 20260906054535 | 18 | 32 | 3.2 | 8.0 | 0.00 | 0.00 | 0.00 | 95 | 1018.7 |
| 20260906054016 | 18 | 27 | 3.2 | 8.0 | 0.00 | 0.00 | 0.00 | 95 | 1018.6 |
| 20260906053517 | 18 | 69 | 4.8 | 8.0 | 0.00 | 0.00 | 0.00 | 95 | 1018.6 |
| 20260906053036 | 18 | 38 | 4.8 | 8.0 | 0.00 | 0.00 | 0.00 | 95 | 1018.6 |
| 20260906052518 | 18 | 72 | 3.2 | 8.0 | 0.00 | 0.00 | 0.00 | 95 | 1018.5 |
| 20260906052022 | 18 | 46 | 3.2 | 8.0 | 0.00 | 0.00 | 0.00 | 95 | 1018.5 |
| 20260906051542 | 18 | 24 | 3.2 | 8.0 | 0.00 | 0.00 | 0.00 | 95 | 1018.5 |
| 20260906051021 | 18 | 44 | 4.8 | 8.0 | 0.00 | 0.00 | 0.00 | 95 | 1018.6 |
| 20260906050521 | 18 | 15 | 4.8 | 8.0 | 0.00 | 0.00 | 0.00 | 94 | 1018.6 |
| 20260906050041 | 18 | 28 | 4.8 | 6.4 | 0.00 | 0.00 | 0.00 | 94 | 1018.6 |
| 20260906045520 | 18 | 19 | 3.2 | 6.4 | 0.00 | 0.00 | 0.00 | 94 | 1018.5 |
| 20260906045018 | 18 | 15 | 3.2 | 6.4 | 0.00 | 0.00 | 0.00 | 94 | 1018.4 |
| 20260906044536 | 18 | 42 | 1.6 | 4.8 | 0.00 | 0.00 | 0.00 | 94 | 1018.3 |
| 20260906044019 | 18 | 30 | 1.6 | 4.8 | 0.00 | 0.00 | 0.00 | 94 | 1018.2 |
| 20260906043518 | 18 | 59 | 3.2 | 6.4 | 0.00 | 0.00 | 0.00 | 94 | 1018.1 |
| 20260906043036 | 18 | 44 | 3.2 | 8.0 | 0.00 | 0.00 | 0.00 | 94 | 1018.1 |
| 20260906042520 | 18 | 18 | 4.8 | 8.0 | 0.00 | 0.00 | 0.00 | 94 | 1018.2 |
| 20260906042021 | 19 | 38 | 4.8 | 6.4 | 0.00 | 0.00 | 0.00 | 94 | 1018.2 |
| 20260906041545 | 19 | 24 | 4.8 | 6.4 | 0.00 | 0.00 | 0.00 | 93 | 1018.2 |
| 20260906041020 | 19 | 39 | 3.2 | 6.4 | 0.00 | 0.00 | 0.00 | 93 | 1018.2 |
| 20260906040523 | 19 | 42 | 3.2 | 6.4 | 0.00 | 0.00 | 0.00 | 93 | 1018.1 |
| 20260906040044 | 19 | 30 | 4.8 | 6.4 | 0.00 | 0.00 | 0.00 | 93 | 1018.1 |
| 20260906035519 | 19 | 34 | 3.2 | 6.4 | 0.00 | 0.00 | 0.00 | 93 | 1018.0 |
| 20260906035018 | 19 | 21 | 4.8 | 6.4 | 0.00 | 0.00 | 0.00 | 93 | 1018.0 |
| 20260906034537 | 19 | 264 | 3.2 | 6.4 | 0.00 | 0.00 | 0.00 | 93 | 1018.1 |
| 20260906034024 | 20 | 5 | 4.8 | 6.4 | 0.00 | 0.00 | 0.00 | 93 | 1018.1 |
| 20260906033518 | 20 | 243 | 4.8 | 6.4 | 0.00 | 0.00 | 0.00 | 93 | 1018.1 |
| 20260906033036 | 20 | 9 | 0.0 | 4.8 | 0.00 | 0.00 | 0.00 | 93 | 1018.1 |
| 20260906032521 | 20 | 0 | 0.0 | 6.4 | 0.00 | 0.00 | 0.00 | 93 | 1017.8 |
| 20260906032020 | 20 | 0 | 0.0 | 8.0 | 0.00 | 0.00 | 0.00 | 93 | 1017.8 |
| 20260906031534 | 20 | 25 | 3.2 | 8.0 | 0.00 | 0.00 | 0.00 | 93 | 1017.7 |
| 20260906031018 | 20 | 26 | 4.8 | 14.5 | 0.00 | 0.00 | 0.00 | 93 | 1017.6 |
| 20260906030519 | 20 | 44 | 6.4 | 14.5 | 0.00 | 0.00 | 0.00 | 93 | 1017.7 |
| 20260906030040 | 20 | 44 | 4.8 | 12.9 | 0.00 | 0.00 | 0.00 | 93 | 1017.5 |
| 20260906025522 | 20 | 35 | 6.4 | 14.5 | 0.00 | 0.00 | 0.00 | 93 | 1017.5 |
| 20260906025022 | 20 | 62 | 4.8 | 14.5 | 0.00 | 0.00 | 0.00 | 93 | 1017.5 |
| 20260906024538 | 20 | 65 | 4.8 | 17.7 | 0.00 | 0.00 | 0.00 | 93 | 1017.5 |
| 20260906024021 | 20 | 91 | 8.0 | 17.7 | 0.00 | 0.00 | 0.00 | 93 | 1017.3 |
| 20260906023520 | 20 | 67 | 8.0 | 17.7 | 0.00 | 0.00 | 0.00 | 93 | 1017.1 |
| 20260906023043 | 20 | 99 | 8.0 | 17.7 | 0.00 | 0.00 | 0.00 | 93 | 1017.1 |
| 20260906022518 | 20 | 54 | 6.4 | 16.1 | 0.00 | 0.00 | 0.00 | 92 | 1017.1 |
| 20260906022021 | 20 | 65 | 4.8 | 12.9 | 0.00 | 0.00 | 0.00 | 92 | 1017.1 |
| 20260906021537 | 20 | 66 | 6.4 | 11.3 | 0.00 | 0.00 | 0.00 | 92 | 1016.9 |
| 20260906021020 | 20 | 46 | 4.8 | 14.5 | 0.00 | 0.00 | 0.00 | 92 | 1016.9 |
| 20260906020520 | 21 | 68 | 6.4 | 17.7 | 0.00 | 0.00 | 0.00 | 92 | 1016.8 |
| 20260906020038 | 21 | 84 | 8.0 | 17.7 | 0.00 | 0.00 | 0.00 | 91 | 1016.8 |
| 20260906015521 | 21 | 76 | 8.0 | 17.7 | 0.00 | 0.00 | 0.00 | 91 | 1016.7 |
| 20260906015021 | 21 | 78 | 9.7 | 17.7 | 0.00 | 0.00 | 0.00 | 91 | 1016.8 |
| 20260906014544 | 21 | 57 | 8.0 | 16.1 | 0.00 | 0.00 | 0.00 | 90 | 1016.9 |
| 20260906014021 | 21 | 69 | 8.0 | 16.1 | 0.00 | 0.00 | 0.00 | 90 | 1016.9 |
| 20260906013519 | 21 | 103 | 6.4 | 16.1 | 0.00 | 0.00 | 0.00 | 90 | 1016.8 |
| 20260906013034 | 21 | 51 | 8.0 | 16.1 | 0.00 | 0.00 | 0.00 | 89 | 1017.0 |
| 20260906012516 | 21 | 104 | 6.4 | 14.5 | 0.00 | 0.00 | 0.00 | 89 | 1016.9 |
| 20260906012016 | 21 | 109 | 8.0 | 14.5 | 0.00 | 0.00 | 0.00 | 88 | 1016.8 |
| 20260906011538 | 21 | 61 | 6.4 | 14.5 | 0.00 | 0.00 | 0.00 | 88 | 1016.9 |
| 20260906011018 | 22 | 99 | 6.4 | 14.5 | 0.00 | 0.00 | 0.00 | 88 | 1016.9 |
| 20260906010518 | 22 | 74 | 8.0 | 16.1 | 0.00 | 0.00 | 0.00 | 87 | 1016.8 |
| 20260906010039 | 22 | 68 | 6.4 | 17.7 | 0.00 | 0.00 | 0.00 | 87 | 1016.9 |
| 20260906005521 | 22 | 80 | 8.0 | 17.7 | 0.00 | 0.00 | 0.00 | 87 | 1016.8 |
| 20260906005024 | 22 | 46 | 8.0 | 16.1 | 0.00 | 0.00 | 0.00 | 87 | 1016.8 |
| 20260906004539 | 22 | 86 | 9.7 | 16.1 | 0.00 | 0.00 | 0.00 | 87 | 1016.7 |
| 20260906004025 | 22 | 63 | 8.0 | 16.1 | 0.00 | 0.00 | 0.00 | 86 | 1016.7 |
| 20260906003520 | 22 | 69 | 4.8 | 16.1 | 0.00 | 0.00 | 0.00 | 86 | 1016.5 |
| 20260906003034 | 23 | 54 | 6.4 | 19.3 | 0.00 | 0.00 | 0.00 | 85 | 1016.4 |
| 20260906002519 | 23 | 107 | 9.7 | 19.3 | 0.00 | 0.00 | 0.00 | 85 | 1016.4 |
| 20260906002016 | 23 | 46 | 11.3 | 17.7 | 0.00 | 0.00 | 0.00 | 84 | 1016.5 |
| 20260906001537 | 23 | 71 | 9.7 | 22.5 | 0.00 | 0.00 | 0.00 | 84 | 1016.7 |
| 20260906001021 | 23 | 20 | 12.9 | 22.5 | 0.00 | 0.00 | 0.00 | 83 | 1016.6 |
| 20260906000527 | 23 | 82 | 14.5 | 24.1 | 0.00 | 0.00 | 0.00 | 83 | 1016.5 |
| 20260906000040 | 24 | 22 | 14.5 | 24.1 | 0.00 | 0.00 | 0.00 | 83 | 1016.6 |
| 20260905235520 | 24 | 55 | 14.5 | 25.7 | 0.00 | 0.00 | 0.00 | 82 | 1016.5 |
| 20260905235020 | 25 | 17 | 17.7 | 25.7 | 0.00 | 0.00 | 0.00 | 82 | 1016.5 |
| 20260905234536 | 25 | 37 | 9.7 | 20.9 | 0.00 | 0.00 | 0.00 | 82 | 1016.6 |
| 20260905234023 | 25 | 41 | 11.3 | 19.3 | 0.00 | 0.00 | 0.00 | 82 | 1016.6 |
| 20260905233520 | 25 | 27 | 9.7 | 20.9 | 0.00 | 0.00 | 0.00 | 82 | 1016.5 |
| 20260905233042 | 25 | 360 | 12.9 | 20.9 | 0.00 | 0.00 | 0.00 | 81 | 1016.5 |
| 20260905232520 | 26 | 19 | 12.9 | 22.5 | 0.00 | 0.00 | 0.00 | 80 | 1016.5 |
| 20260905232021 | 26 | 25 | 9.7 | 24.1 | 0.00 | 0.00 | 0.00 | 79 | 1016.4 |
| 20260905231549 | 26 | 23 | 17.7 | 24.1 | 0.00 | 0.00 | 0.00 | 79 | 1016.3 |
| 20260905231019 | 26 | 343 | 14.5 | 20.9 | 0.00 | 0.00 | 0.00 | 79 | 1016.3 |
| 20260905230524 | 26 | 344 | 14.5 | 25.7 | 0.00 | 0.00 | 0.00 | 79 | 1016.2 |
| 20260905230043 | 26 | 360 | 14.5 | 25.7 | 0.00 | 0.00 | 0.00 | 77 | 1016.1 |
| 20260905225520 | 26 | 12 | 16.1 | 24.1 | 0.00 | 0.00 | 0.00 | 77 | 1016.1 |
| 20260905225020 | 26 | 5 | 11.3 | 20.9 | 0.00 | 0.00 | 0.00 | 78 | 1015.9 |
| 20260905224539 | 26 | 346 | 9.7 | 24.1 | 0.00 | 0.00 | 0.00 | 78 | 1015.9 |
| 20260905224019 | 26 | 15 | 16.1 | 24.1 | 0.00 | 0.00 | 0.00 | 77 | 1015.9 |
| 20260905223518 | 26 | 344 | 12.9 | 22.5 | 0.00 | 0.00 | 0.00 | 77 | 1016.0 |
| 20260905223038 | 26 | 294 | 16.1 | 22.5 | 0.00 | 0.00 | 0.00 | 77 | 1016.1 |
| 20260905222529 | 26 | 21 | 9.7 | 17.7 | 0.00 | 0.00 | 0.00 | 78 | 1016.1 |
| 20260905222026 | 26 | 15 | 12.9 | 19.3 | 0.00 | 0.00 | 0.00 | 77 | 1016.1 |
| 20260905221540 | 26 | 31 | 11.3 | 19.3 | 0.00 | 0.00 | 0.00 | 77 | 1016.0 |
| 20260905221024 | 26 | 20 | 11.3 | 24.1 | 0.00 | 0.00 | 0.00 | 77 | 1016.0 |
| 20260905220524 | 26 | 11 | 16.1 | 24.1 | 0.00 | 0.00 | 0.00 | 75 | 1016.0 |
| 20260905220038 | 26 | 56 | 11.3 | 25.7 | 0.00 | 0.00 | 0.00 | 76 | 1015.9 |
| 20260905215519 | 26 | 344 | 16.1 | 25.7 | 0.00 | 0.00 | 0.00 | 77 | 1015.9 |
| 20260905215017 | 26 | 348 | 16.1 | 25.7 | 0.00 | 0.00 | 0.00 | 76 | 1015.8 |
| 20260905214538 | 27 | 13 | 16.1 | 25.7 | 0.00 | 0.00 | 0.00 | 75 | 1015.7 |
| 20260905214018 | 27 | 25 | 9.7 | 22.5 | 0.00 | 0.00 | 0.00 | 75 | 1015.7 |
| 20260905213520 | 27 | 10 | 9.7 | 22.5 | 0.00 | 0.00 | 0.00 | 76 | 1015.8 |
| 20260905213037 | 26 | 5 | 12.9 | 27.4 | 0.00 | 0.00 | 0.00 | 76 | 1015.8 |
| 20260905212520 | 26 | 337 | 17.7 | 27.4 | 0.00 | 0.00 | 0.00 | 74 | 1015.8 |
| 20260905212026 | 26 | 9 | 12.9 | 24.1 | 0.00 | 0.00 | 0.00 | 76 | 1015.8 |
| 20260905211535 | 26 | 5 | 14.5 | 24.1 | 0.00 | 0.00 | 0.00 | 75 | 1015.8 |
| 20260905211020 | 26 | 334 | 9.7 | 17.7 | 0.00 | 0.00 | 0.00 | 76 | 1015.9 |
| 20260905210520 | 26 | 21 | 6.4 | 22.5 | 0.00 | 0.00 | 0.00 | 77 | 1016.1 |
| 20260905210035 | 26 | 24 | 16.1 | 24.1 | 0.00 | 0.00 | 0.00 | 74 | 1016.2 |
| 20260905205519 | 27 | 21 | 6.4 | 24.1 | 0.00 | 0.00 | 0.00 | 76 | 1016.1 |
| 20260905205023 | 26 | 54 | 9.7 | 20.9 | 0.00 | 0.00 | 0.00 | 76 | 1016.2 |
| 20260905204537 | 26 | 338 | 14.5 | 20.9 | 0.00 | 0.00 | 0.00 | 77 | 1016.2 |
| 20260905204022 | 26 | 246 | 11.3 | 25.7 | 0.00 | 0.00 | 0.00 | 78 | 1016.2 |
| 20260905203521 | 26 | 360 | 17.7 | 25.7 | 0.00 | 0.00 | 0.00 | 79 | 1016.2 |
| 20260905203040 | 26 | 360 | 12.9 | 19.3 | 0.00 | 0.00 | 0.00 | 80 | 1016.1 |
| 20260905202520 | 26 | 340 | 12.9 | 19.3 | 0.00 | 0.00 | 0.00 | 78 | 1016.2 |
| 20260905202020 | 26 | 19 | 9.7 | 17.7 | 0.00 | 0.00 | 0.00 | 80 | 1016.2 |
| 20260905201536 | 25 | 24 | 12.9 | 22.5 | 0.00 | 0.00 | 0.00 | 80 | 1016.2 |
| 20260905201017 | 26 | 273 | 12.9 | 24.1 | 0.00 | 0.00 | 0.00 | 81 | 1016.2 |
| 20260905200518 | 26 | 341 | 14.5 | 24.1 | 0.00 | 0.00 | 0.00 | 80 | 1016.2 |
| 20260905200033 | 26 | 15 | 9.7 | 16.1 | 0.00 | 0.00 | 0.00 | 78 | 1016.2 |
| 20260905195516 | 26 | 338 | 6.4 | 17.7 | 0.00 | 0.00 | 0.00 | 81 | 1016.3 |
| 20260905195016 | 25 | 12 | 12.9 | 17.7 | 0.00 | 0.00 | 0.00 | 81 | 1016.3 |
| 20260905194538 | 25 | 332 | 12.9 | 22.5 | 0.00 | 0.00 | 0.00 | 83 | 1016.3 |
| 20260905194020 | 25 | 340 | 14.5 | 22.5 | 0.00 | 0.00 | 0.00 | 83 | 1016.3 |
| 20260905193519 | 25 | 360 | 12.9 | 22.5 | 0.00 | 0.00 | 0.00 | 84 | 1016.3 |
| 20260905193035 | 25 | 342 | 6.4 | 12.9 | 0.00 | 0.00 | 0.00 | 84 | 1016.3 |
| 20260905192525 | 25 | 65 | 4.8 | 12.9 | 0.00 | 0.00 | 0.00 | 85 | 1016.3 |
| 20260905192020 | 24 | 13 | 8.0 | 16.1 | 0.00 | 0.00 | 0.00 | 87 | 1016.4 |
| 20260905191537 | 23 | 46 | 8.0 | 20.9 | 0.00 | 0.00 | 0.00 | 87 | 1016.4 |
| 20260905191019 | 23 | 34 | 12.9 | 20.9 | 0.00 | 0.00 | 0.00 | 87 | 1016.5 |
| 20260905190522 | 24 | 5 | 12.9 | 20.9 | 0.00 | 0.00 | 0.00 | 87 | 1016.4 |
| 20260905190056 | 24 | 250 | 9.7 | 17.7 | 0.00 | 0.00 | 0.00 | 87 | 1016.5 |
| 20260905185535 | 24 | 262 | 8.0 | 16.1 | 0.00 | 0.00 | 0.00 | 87 | 1016.6 |
| 20260905185016 | 24 | 28 | 11.3 | 19.3 | 0.00 | 0.00 | 0.00 | 87 | 1016.6 |
| 20260905184557 | 23 | 5 | 9.7 | 19.3 | 0.00 | 0.00 | 0.00 | 87 | 1016.7 |
| 20260905184021 | 23 | 360 | 11.3 | 17.7 | 0.00 | 0.00 | 0.00 | 88 | 1016.7 |
| 20260905183520 | 23 | 5 | 8.0 | 17.7 | 0.00 | 0.00 | 0.00 | 88 | 1016.7 |
| 20260905183039 | 23 | 69 | 9.7 | 20.9 | 0.00 | 0.00 | 0.00 | 88 | 1016.7 |
| 20260905182522 | 23 | 5 | 14.5 | 22.5 | 0.00 | 0.00 | 0.00 | 88 | 1016.7 |
| 20260905182021 | 23 | 21 | 16.1 | 22.5 | 0.00 | 0.00 | 0.00 | 88 | 1016.7 |
| 20260905181534 | 23 | 5 | 14.5 | 20.9 | 0.00 | 0.00 | 0.00 | 88 | 1016.7 |
| 20260905181019 | 23 | 350 | 14.5 | 20.9 | 0.00 | 0.00 | 0.00 | 88 | 1016.8 |
| 20260905180517 | 23 | 344 | 12.9 | 20.9 | 0.00 | 0.00 | 0.00 | 88 | 1016.7 |
| 20260905180035 | 23 | 319 | 14.5 | 20.9 | 0.00 | 0.00 | 0.00 | 88 | 1016.7 |
| 20260905175519 | 23 | 340 | 16.1 | 20.9 | 0.00 | 0.00 | 0.00 | 88 | 1016.7 |
| 20260905175020 | 23 | 15 | 14.5 | 22.5 | 0.00 | 0.00 | 0.00 | 89 | 1016.7 |
| 20260905174545 | 23 | 10 | 12.9 | 22.5 | 0.00 | 0.00 | 0.00 | 89 | 1016.6 |
| 20260905174018 | 23 | 14 | 12.9 | 22.5 | 0.00 | 0.00 | 0.00 | 89 | 1016.7 |
| 20260905173520 | 23 | 286 | 9.7 | 22.5 | 0.00 | 0.00 | 0.00 | 89 | 1016.7 |
| 20260905173039 | 23 | 34 | 14.5 | 22.5 | 0.00 | 0.00 | 0.00 | 89 | 1016.7 |
| 20260905172520 | 23 | 360 | 12.9 | 20.9 | 0.00 | 0.00 | 0.00 | 89 | 1016.8 |
| 20260905172020 | 23 | 348 | 12.9 | 20.9 | 0.00 | 0.00 | 0.00 | 89 | 1016.7 |
| 20260905171536 | 23 | 32 | 14.5 | 20.9 | 0.00 | 0.00 | 0.00 | 89 | 1016.7 |
| 20260905171019 | 23 | 12 | 16.1 | 20.9 | 0.00 | 0.00 | 0.00 | 90 | 1016.7 |
| 20260905170519 | 23 | 28 | 12.9 | 22.5 | 0.00 | 0.00 | 0.00 | 90 | 1016.8 |
| 20260905170037 | 23 | 40 | 12.9 | 22.5 | 0.00 | 0.00 | 0.00 | 90 | 1016.8 |
| 20260905165518 | 23 | 19 | 14.5 | 22.5 | 0.00 | 0.00 | 0.00 | 90 | 1016.7 |
| 20260905165018 | 23 | 290 | 16.1 | 22.5 | 0.00 | 0.00 | 0.00 | 89 | 1016.8 |
| 20260905164540 | 23 | 35 | 11.3 | 20.9 | 0.00 | 0.00 | 0.00 | 89 | 1016.8 |
| 20260905164019 | 23 | 13 | 12.9 | 22.5 | 0.00 | 0.00 | 0.00 | 89 | 1016.7 |
| 20260905163520 | 23 | 5 | 14.5 | 22.5 | 0.00 | 0.00 | 0.00 | 89 | 1016.7 |
| 20260905163039 | 24 | 28 | 11.3 | 20.9 | 0.00 | 0.00 | 0.00 | 88 | 1016.8 |
| 20260905162520 | 24 | 5 | 12.9 | 22.5 | 0.00 | 0.00 | 0.00 | 89 | 1016.7 |
| 20260905162020 | 24 | 44 | 16.1 | 22.5 | 0.00 | 0.00 | 0.00 | 88 | 1016.7 |
| 20260905161537 | 24 | 15 | 16.1 | 22.5 | 0.00 | 0.00 | 0.00 | 89 | 1016.7 |
| 20260905161020 | 24 | 41 | 14.5 | 19.3 | 0.00 | 0.00 | 0.00 | 89 | 1016.6 |
| 20260905160518 | 24 | 31 | 9.7 | 20.9 | 0.00 | 0.00 | 0.00 | 89 | 1016.6 |
| 20260905160035 | 23 | 75 | 8.0 | 20.9 | 0.00 | 0.00 | 0.00 | 89 | 1016.7 |
| 20260905155517 | 23 | 17 | 11.3 | 19.3 | 0.00 | 0.08 | 0.00 | 90 | 1016.7 |
| 20260905155018 | 23 | 337 | 11.3 | 17.7 | 0.00 | 0.08 | 0.00 | 91 | 1016.6 |
| 20260905154537 | 23 | 43 | 9.7 | 17.7 | 0.00 | 0.08 | 0.00 | 89 | 1016.5 |
| 20260905154019 | 23 | 45 | 12.9 | 16.1 | 0.00 | 0.08 | 0.00 | 90 | 1016.7 |
| 20260905153521 | 23 | 360 | 9.7 | 16.1 | 0.00 | 0.08 | 0.00 | 91 | 1016.6 |
| 20260905153037 | 23 | 63 | 6.4 | 16.1 | 0.00 | 0.08 | 0.00 | 91 | 1016.6 |
| 20260905152521 | 23 | 24 | 8.0 | 16.1 | 0.00 | 0.08 | 0.00 | 91 | 1016.5 |
| 20260905152020 | 23 | 9 | 9.7 | 16.1 | 0.00 | 0.08 | 0.00 | 91 | 1016.5 |
| 20260905151538 | 23 | 30 | 9.7 | 16.1 | 0.00 | 0.08 | 0.00 | 92 | 1016.4 |
| 20260905151023 | 23 | 5 | 9.7 | 17.7 | 0.00 | 0.08 | 0.00 | 91 | 1016.3 |
| 20260905150520 | 23 | 30 | 12.9 | 17.7 | 0.00 | 0.08 | 0.00 | 92 | 1016.2 |
| 20260905150035 | 23 | 29 | 6.4 | 14.5 | 0.00 | 0.08 | 0.00 | 93 | 1016.1 |
| 20260905145518 | 23 | 360 | 9.7 | 14.5 | 0.00 | 0.08 | 0.00 | 93 | 1016.2 |
| 20260905145018 | 22 | 29 | 3.2 | 9.7 | 0.00 | 0.08 | 0.00 | 93 | 1016.1 |
| 20260905144541 | 22 | 72 | 4.8 | 12.9 | 0.00 | 0.08 | 0.00 | 94 | 1016.0 |
| 20260905144021 | 22 | 28 | 4.8 | 14.5 | 0.00 | 0.08 | 0.00 | 93 | 1016.0 |
| 20260905143520 | 22 | 71 | 6.4 | 16.1 | 0.00 | 0.08 | 0.00 | 94 | 1015.8 |
| 20260905143038 | 22 | 74 | 8.0 | 16.1 | 0.00 | 0.08 | 0.00 | 94 | 1015.6 |
| 20260905142523 | 22 | 69 | 6.4 | 16.1 | 0.00 | 0.08 | 0.00 | 94 | 1015.7 |
| 20260905142019 | 22 | 51 | 8.0 | 16.1 | 0.00 | 0.08 | 0.00 | 94 | 1015.8 |
| 20260905141542 | 22 | 90 | 4.8 | 20.9 | 0.00 | 0.08 | 0.00 | 94 | 1015.8 |
| 20260905141020 | 22 | 88 | 9.7 | 20.9 | 0.00 | 0.08 | 0.00 | 94 | 1015.8 |
| 20260905140519 | 22 | 90 | 9.7 | 16.1 | 0.00 | 0.08 | 0.00 | 94 | 1015.7 |